• In Hungary
  • List of Countries
  • For 7 days
  • Water Temperature
  • Satellite Maps
  • Weather Map
  • News
  • Weather Widgets
  • user-avatar
    Login

    Hourly Weather Wierzbno

    Today, 23 October, Tuesday

    Time Temperature Precipitation Wind Pressure Humidity
    00:00 +7°C° 0 mm 3 mps 751 mmHg 88%
    01:00 +6°C° 0 mm 2 mps 751 mmHg 91%
    02:00 +5°C° 0 mm 2 mps 750 mmHg 90%
    03:00 +5°C° 0 mm 2 mps 750 mmHg 89%
    04:00 +4°C° 0 mm 2 mps 750 mmHg 88%
    05:00 +4°C° 0 mm 3 mps 749 mmHg 87%
    06:00 +4°C° 0 mm 3 mps 748 mmHg 86%
    07:00 +4°C° 0 mm 3 mps 748 mmHg 84%
    08:00 +5°C° 0 mm 4 mps 747 mmHg 77%
    09:00 +7°C° 0 mm 6 mps 746 mmHg 70%
    10:00 +8°C° 0 mm 7 mps 746 mmHg 63%
    11:00 +8°C° 0.3 mm 7 mps 745 mmHg 63%
    12:00 +7°C° 0.3 mm 8 mps 744 mmHg 63%
    13:00 +7°C° 0.3 mm 8 mps 743 mmHg 63%
    14:00 +7°C° 0.3 mm 9 mps 742 mmHg 66%
    15:00 +7°C° 0.3 mm 9 mps 741 mmHg 70%
    16:00 +7°C° 0.3 mm 9 mps 741 mmHg 73%
    17:00 +8°C° 0.3 mm 9 mps 740 mmHg 74%
    18:00 +8°C° 0.3 mm 10 mps 739 mmHg 76%
    19:00 +9°C° 0.3 mm 10 mps 739 mmHg 77%
    20:00 +9°C° 0.4 mm 10 mps 738 mmHg 77%
    21:00 +9°C° 0.4 mm 10 mps 737 mmHg 78%
    22:00 +11°C° 0.4 mm 10 mps 737 mmHg 78%
    23:00 +11°C° 0.6 mm 10 mps 736 mmHg 79%

    Tomorrow, 24 October, Wednesday

    Time Temperature Precipitation Wind Pressure Humidity
    00:00 +11°C° 0.6 mm 10 mps 735 mmHg 79%
    01:00 +11°C° 0.6 mm 10 mps 734 mmHg 80%
    02:00 +11°C° 1.1 mm 11 mps 734 mmHg 80%
    03:00 +11°C° 1.1 mm 11 mps 733 mmHg 80%
    04:00 +11°C° 1.1 mm 11 mps 733 mmHg 80%
    05:00 +8°C° 0.6 mm 11 mps 734 mmHg 76%
    06:00 +7°C° 0.6 mm 10 mps 735 mmHg 73%
    07:00 +6°C° 0.6 mm 10 mps 736 mmHg 70%
    08:00 +6°C° 0.1 mm 10 mps 736 mmHg 67%
    09:00 +6°C° 0.1 mm 10 mps 737 mmHg 64%
    10:00 +6°C° 0.1 mm 10 mps 737 mmHg 61%
    11:00 +6°C° 0.1 mm 10 mps 738 mmHg 59%
    12:00 +6°C° 0.1 mm 11 mps 738 mmHg 58%
    13:00 +6°C° 0.1 mm 11 mps 739 mmHg 56%
    14:00 +6°C° 0 mm 10 mps 739 mmHg 55%
    15:00 +6°C° 0 mm 9 mps 740 mmHg 54%
    16:00 +6°C° 0 mm 8 mps 741 mmHg 53%
    17:00 +5°C° 0 mm 7 mps 741 mmHg 56%
    18:00 +4°C° 0 mm 7 mps 742 mmHg 59%
    19:00 +4°C° 0 mm 6 mps 743 mmHg 62%
    20:00 +3°C° 0 mm 6 mps 743 mmHg 63%
    21:00 +3°C° 0 mm 6 mps 743 mmHg 65%
    22:00 +3°C° 0 mm 5 mps 744 mmHg 67%
    23:00 +2°C° 0 mm 5 mps 744 mmHg 70%

    Day after tomorrow, 25 October, Thursday

    Time Temperature Precipitation Wind Pressure Humidity
    00:00 +2°C° 0 mm 5 mps 744 mmHg 72%
    01:00 +1°C° 0 mm 4 mps 744 mmHg 75%
    02:00 +3°C° 0 mm 4 mps 743 mmHg 77%
    03:00 +3°C° 0 mm 4 mps 743 mmHg 79%
    04:00 +3°C° 0 mm 4 mps 742 mmHg 81%
    05:00 +4°C° 0.3 mm 4 mps 742 mmHg 82%
    06:00 +5°C° 0.3 mm 4 mps 741 mmHg 83%
    07:00 +6°C° 0.3 mm 5 mps 740 mmHg 85%
    08:00 +7°C° 0.2 mm 6 mps 740 mmHg 82%
    09:00 +9°C° 0.2 mm 7 mps 740 mmHg 79%
    10:00 +11°C° 0.2 mm 9 mps 739 mmHg 76%
    11:00 +11°C° 0.1 mm 9 mps 739 mmHg 75%
    12:00 +11°C° 0.1 mm 9 mps 739 mmHg 73%
    13:00 +11°C° 0.1 mm 9 mps 738 mmHg 72%
    14:00 +11°C° 0.1 mm 8 mps 739 mmHg 73%
    15:00 +10°C° 0.1 mm 8 mps 739 mmHg 75%
    16:00 +10°C° 0.1 mm 7 mps 739 mmHg 76%
    17:00 +10°C° 0.1 mm 6 mps 739 mmHg 78%
    18:00 +9°C° 0.1 mm 6 mps 739 mmHg 80%
    19:00 +9°C° 0.1 mm 5 mps 740 mmHg 81%
    20:00 +8°C° 0.1 mm 5 mps 740 mmHg 82%
    21:00 +8°C° 0.1 mm 4 mps 740 mmHg 82%
    22:00 +8°C° 0.1 mm 4 mps 741 mmHg 82%
    23:00 +8°C° 0 mm 3 mps 741 mmHg 84%

    26 October, Friday

    Time Temperature Precipitation Wind Pressure Humidity
    00:00 +7°C° 0 mm 3 mps 741 mmHg 86%
    01:00 +7°C° 0 mm 3 mps 741 mmHg 87%
    02:00 +7°C° 0 mm 3 mps 741 mmHg 87%
    03:00 +7°C° 0 mm 2 mps 741 mmHg 87%
    04:00 +7°C° 0 mm 2 mps 740 mmHg 87%
    05:00 +7°C° 0 mm 2 mps 740 mmHg 88%
    06:00 +8°C° 0 mm 2 mps 740 mmHg 89%
    07:00 +8°C° 0 mm 2 mps 740 mmHg 89%
    08:00 +9°C° 0 mm 2 mps 740 mmHg 85%
    09:00 +10°C° 0 mm 3 mps 740 mmHg 80%
    10:00 +11°C° 0 mm 3 mps 740 mmHg 76%
    11:00 +12°C° 0 mm 3 mps 739 mmHg 72%
    12:00 +13°C° 0 mm 3 mps 739 mmHg 69%
    13:00 +13°C° 0 mm 4 mps 738 mmHg 66%
    14:00 +13°C° 0 mm 3 mps 738 mmHg 68%
    15:00 +13°C° 0 mm 3 mps 737 mmHg 70%
    16:00 +12°C° 0 mm 3 mps 737 mmHg 72%
    17:00 +12°C° 0 mm 3 mps 736 mmHg 75%
    18:00 +11°C° 0 mm 4 mps 736 mmHg 77%
    19:00 +11°C° 0 mm 4 mps 736 mmHg 79%
    20:00 +11°C° 0 mm 4 mps 736 mmHg 79%
    21:00 +11°C° 0 mm 4 mps 735 mmHg 80%
    22:00 +11°C° 0 mm 4 mps 735 mmHg 81%
    23:00 +10°C° 0 mm 4 mps 735 mmHg 82%

    27 October, Saturday

    Time Temperature Precipitation Wind Pressure Humidity
    00:00 +10°C° 0 mm 3 mps 735 mmHg 83%
    01:00 +10°C° 0 mm 3 mps 734 mmHg 84%
    02:00 +10°C° 0 mm 3 mps 734 mmHg 85%
    03:00 +9°C° 0 mm 3 mps 734 mmHg 86%
    04:00 +9°C° 0 mm 3 mps 734 mmHg 87%
    05:00 +9°C° 0.1 mm 3 mps 734 mmHg 87%
    06:00 +8°C° 0.1 mm 2 mps 734 mmHg 87%
    07:00 +8°C° 0.1 mm 2 mps 734 mmHg 87%
    08:00 +9°C° 0.3 mm 2 mps 734 mmHg 84%
    09:00 +9°C° 0.3 mm 2 mps 735 mmHg 82%
    10:00 +9°C° 0.3 mm 2 mps 735 mmHg 79%
    11:00 +9°C° 0.3 mm 2 mps 735 mmHg 78%
    12:00 +9°C° 0.3 mm 3 mps 735 mmHg 76%
    13:00 +9°C° 0.3 mm 3 mps 735 mmHg 74%
    14:00 +9°C° 0.1 mm 2 mps 735 mmHg 74%
    15:00 +8°C° 0.1 mm 2 mps 735 mmHg 74%
    16:00 +9°C° 0.1 mm 1 mps 735 mmHg 74%
    17:00 +9°C° 0.1 mm 1 mps 735 mmHg 75%
    18:00 +8°C° 0.1 mm 1 mps 735 mmHg 77%
    19:00 +8°C° 0.1 mm 1 mps 735 mmHg 78%
    20:00 +8°C° 0.2 mm 1 mps 734 mmHg 78%
    21:00 +7°C° 0.2 mm 1 mps 734 mmHg 79%
    22:00 +6°C° 0.2 mm 2 mps 734 mmHg 79%
    23:00 +6°C° 0.3 mm 2 mps 734 mmHg 80%

    28 October, Sunday

    Time Temperature Precipitation Wind Pressure Humidity
    00:00 +6°C° 0.3 mm 2 mps 734 mmHg 81%
    01:00 +5°C° 0.3 mm 2 mps 733 mmHg 82%
    02:00 +5°C° 0.4 mm 2 mps 733 mmHg 82%
    03:00 +5°C° 0.4 mm 2 mps 733 mmHg 82%
    04:00 +5°C° 0.4 mm 2 mps 733 mmHg 83%
    05:00 +5°C° 0.2 mm 2 mps 733 mmHg 83%
    06:00 +5°C° 0.2 mm 2 mps 733 mmHg 84%
    07:00 +4°C° 0.2 mm 2 mps 733 mmHg 84%
    08:00 +5°C° 0.2 mm 2 mps 734 mmHg 81%
    09:00 +5°C° 0.2 mm 2 mps 734 mmHg 78%
    10:00 +5°C° 0.2 mm 3 mps 735 mmHg 74%
    11:00 +5°C° 0.1 mm 3 mps 735 mmHg 71%
    12:00 +7°C° 0.1 mm 2 mps 736 mmHg 67%
    13:00 +7°C° 0.1 mm 2 mps 737 mmHg 64%
    14:00 +7°C° 0 mm 2 mps 737 mmHg 67%
    15:00 +6°C° 0 mm 2 mps 738 mmHg 69%
    16:00 +6°C° 0 mm 2 mps 738 mmHg 72%
    17:00 +5°C° 0 mm 2 mps 739 mmHg 77%
    18:00 +4°C° 0 mm 2 mps 739 mmHg 81%
    19:00 +2°C° 0 mm 3 mps 740 mmHg 85%
    20:00 +3°C° 0 mm 2 mps 740 mmHg 86%
    21:00 +3°C° 0 mm 2 mps 741 mmHg 88%
    22:00 +2°C° 0 mm 2 mps 741 mmHg 89%
    23:00 +2°C° 0 mm 2 mps 741 mmHg 88%

    29 October, Monday

    Time Temperature Precipitation Wind Pressure Humidity
    00:00 +2°C° 0 mm 2 mps 741 mmHg 88%
    01:00 +2°C° 0 mm 2 mps 742 mmHg 88%
    02:00 +3°C° 0 mm 1 mps 742 mmHg 87%
    03:00 +3°C° 0 mm 1 mps 742 mmHg 86%
    04:00 +3°C° 0 mm 1 mps 742 mmHg 85%
    05:00 +3°C° 0 mm 1 mps 742 mmHg 85%
    06:00 +3°C° 0 mm 1 mps 742 mmHg 84%
    07:00 +3°C° 0 mm 1 mps 742 mmHg 84%
    08:00 +4°C° 0 mm 1 mps 743 mmHg 79%
    09:00 +5°C° 0 mm 1 mps 743 mmHg 74%
    10:00 +6°C° 0 mm 1 mps 743 mmHg 69%
    11:00 +7°C° 0 mm 1 mps 743 mmHg 67%
    12:00 +6°C° 0 mm 2 mps 742 mmHg 66%
    13:00 +6°C° 0 mm 2 mps 742 mmHg 65%
    14:00 +6°C° 0 mm 2 mps 742 mmHg 68%
    15:00 +6°C° 0 mm 2 mps 741 mmHg 71%
    16:00 +5°C° 0 mm 2 mps 741 mmHg 75%
    17:00 +4°C° 0.1 mm 3 mps 741 mmHg 76%
    18:00 +4°C° 0.1 mm 3 mps 741 mmHg 77%
    19:00 +3°C° 0.1 mm 3 mps 741 mmHg 79%
    20:00 +3°C° 0.1 mm 3 mps 741 mmHg 80%
    21:00 +3°C° 0.1 mm 3 mps 740 mmHg 81%
    22:00 +3°C° 0.1 mm 4 mps 740 mmHg 82%
    23:00 +3°C° 0.1 mm 4 mps 740 mmHg 83%
    Show more